Location: Olsztyn
(53.7784°N, 20.4801°E)
Time: 12:36:52
(UTC+01:00)

ISS - Visible Passes

Search period start: 24 March 2019 00:00
Search period end: 03 April 2019 01:00
Orbit: 408 x 411 km, 51.6° (Epoch: 24 March)

Date Brightness Start Highest point End Pass type
(mag) Time Alt. Az. Time Alt. Az. Time Alt. Az.
24 Mar -3.0 19:33:50 10° SW 19:36:48 31° SSE 19:37:09 30° SE visible
24 Mar -0.7 21:09:50 10° WSW 21:09:56 11° WSW 21:09:56 11° WSW visible
25 Mar -2.4 18:43:37 10° SSW 18:46:18 23° SSE 18:48:52 11° E visible
25 Mar -2.9 20:19:16 10° WSW 20:21:38 39° SW 20:21:38 39° SW visible
26 Mar -3.4 19:28:43 10° WSW 19:31:54 45° SSE 19:33:13 28° ESE visible
26 Mar -1.3 21:05:01 10° W 21:05:59 18° W 21:05:59 18° W visible
27 Mar -3.0 18:38:15 10° SW 18:41:19 36° SSE 18:44:24 10° E visible
27 Mar -3.6 20:14:23 10° W 20:17:27 58° SSW 20:17:27 58° SSW visible
28 Mar -3.6 19:23:45 10° WSW 19:27:01 57° S 19:28:51 23° ESE visible
28 Mar -1.7 21:00:12 10° W 21:01:37 22° WSW 21:01:37 22° WSW visible
29 Mar -3.7 20:09:31 10° W 20:12:47 56° S 20:12:58 54° S visible
30 Mar -3.6 19:18:50 10° W 19:22:06 60° S 19:24:17 19° ESE visible
30 Mar -1.8 20:55:23 10° W 20:57:01 23° WSW 20:57:01 23° WSW visible
31 Mar -3.2 21:04:37 10° W 21:07:48 43° SSW 21:08:18 39° S visible
01 Apr -3.4 20:13:54 10° W 20:17:08 52° S 20:19:35 16° ESE visible
01 Apr -1.6 21:50:41 10° W 21:52:20 19° SW 21:52:20 19° SW visible
02 Apr -2.5 20:59:47 10° W 21:02:42 29° SSW 21:03:36 25° S visible
